Simultaneous Nadir Overpasses (SNOs) Predictions

Prediction of SNOs between AQUA and GOES-15 Satellite Orbit:

Table of predicted SNOs for the next 14.0 days since TLE Epoch: 2/15/2019
Index Date Time (AQUA) AQUA Lat,Lon GOES-15 Lat,Lon Distance(km) Time Diff (sec)
1 02/15/2019 21:52:08 0.85,-124.21 0.04,-128.11 442.62 80
2 02/16/2019 10:13:24 0.21,-129.38 -0.04,-128.20 134.19 80
3 02/18/2019 10:01:14 -0.44,-126.43 -0.03,-128.24 206.29 80
4 02/18/2019 22:22:38 -0.71,-131.61 0.02,-128.17 391.25 80
5 02/20/2019 22:10:27 -0.10,-128.65 0.01,-128.21 51.06 80
6 02/22/2019 21:58:17 0.56,-125.70 0.02,-128.24 288.89 80
7 02/23/2019 10:19:33 0.51,-130.86 -0.01,-128.33 288.18 80
8 02/25/2019 10:07:22 -0.10,-127.90 -0.01,-128.36 51.37 80
9 02/27/2019 09:55:12 -0.77,-124.96 -0.01,-128.39 390.60 80
10 02/27/2019 22:16:35 -0.41,-130.13 0.00,-128.32 207.13 80




NCC Satellite Simultaneous Nadir Overpasses (SNOs) Prediction Service
